This demonstration page uses our WeatherBlox Daily Observations layout. Learn more.

Left ArrowRight Arrow

41.55636, -103.73856

Hourly Observations for April 7, 2018

Temp ( °F °C ) Dew Point ( °F °C ) Humidity (%) Winds ( mph kmh ) Pressure ( in mb ) Visibility ( mi km ) Precip ( " mm )
12:58 am 00:58 Cloudy with Light Snow 14 -10 12 -10.9 93 93 SSE 16 26 30.32 1027 10 16 N/A
1:58 am 01:58 Cloudy with Light Snow 14 -10.1 12 -11 93 93 SSE 15 24 30.31 1026 10 16 N/A
2:58 am 02:58 Cloudy with Light Snow Showers 14 -10.2 12 -11.1 93 93 S 12 19 30.28 1025 10 16 N/A
3:58 am 03:58 Cloudy with Light Snow Showers 14 -9.9 13 -10.8 93 93 S 12 19 30.27 1025 4 6 N/A
4:58 am 04:58 Cloudy with Light Snow Showers 15 -9.5 13 -10.5 93 93 S 14 22 30.23 1024 10 16 N/A
5:58 am 05:58 Cloudy with Light Snow Showers 16 -9.1 14 -10 93 93 SSW 16 26 30.22 1023 10 16 N/A
6:58 am 06:58 Cloudy with Light Snow Showers 17 -8.6 15 -9.4 94 94 SSW 12 19 30.24 1024 10 16 N/A
7:58 am 07:58 Cloudy 18 -7.8 17 -8.5 95 95 SSW 14 22 30.21 1023 10 16 N/A
8:58 am 08:58 Mostly Cloudy 20 -6.9 18 -7.6 95 95 SSW 12 19 30.20 1023 10 16 N/A
9:58 am 09:58 Mostly Sunny 22 -5.6 20 -6.5 93 93 S 13 20 30.18 1022 10 16 N/A
10:58 am 10:58 Mostly Sunny 26 -3.6 22 -5.3 88 88 SSW 13 20 30.16 1021 10 16 N/A
11:58 am 11:58 Mostly Sunny 29 -1.9 25 -4 86 86 S 13 20 30.12 1020 10 16 0.02 0.51
12:58 pm 12:58 Mostly Sunny 33 0.6 29 -1.5 86 86 SSW 15 24 30.06 1018 10 16 N/A
1:58 pm 13:58 Sunny 38 3.4 32 undefined 79 79 SSW 16 26 30.03 1017 10 16 N/A
2:58 pm 14:58 Sunny 42 5.5 35 1.4 75 75 S 13 20 29.98 1015 10 16 N/A
3:58 pm 15:58 Sunny 44 6.9 34 1.2 67 67 S 13 20 29.92 1013 10 16 N/A
4:58 pm 16:58 Mostly Sunny 44 6.9 34 1.3 68 68 S 17 28 29.91 1013 10 16 N/A
5:58 pm 17:58 Mostly Cloudy 44 6.5 34 1.1 69 69 S 18 30 29.88 1012 10 16 N/A
6:58 pm 18:58 Sunny 43 6.3 34 1.3 71 71 S 15 24 29.85 1011 10 16 N/A
7:58 pm 19:58 Mostly Cloudy 43 5.9 34 1.1 72 72 S 14 22 29.80 1009 10 16 N/A
8:58 pm 20:58 Mostly Cloudy 41 4.9 34 1.1 77 77 S 15 24 29.78 1008 10 16 N/A
9:58 pm 21:58 Mostly Cloudy 40 4.3 33 0.6 77 77 SSW 10 17 29.73 1007 10 16 N/A
10:58 pm 22:58 Cloudy 40 4.6 33 0.6 76 76 SSW 10 17 29.65 1004 10 16 N/A
11:58 pm 23:58 Mostly Cloudy 41 4.8 33 0.8 76 76 SSW 14 22 29.60 1003 10 16 N/A

Powered by AerisWeather